User: anonymous   Login
Location: Unspecified
(0.0000°N, 0.0000°E)
Time: 20:00:58
(UTC+00:00)
Language:

COSMOS 2497 - Orbit

View from above orbital plane
View from above orbital plane
View from above satellite
View from above satellite

Ground track
Ground track

The orbit data is extracted from the following two-line orbital elements,

1 39762U 14028B   18171.72819319 -.00000008 +00000-0 -12471-3 0  9998
2 39762 082.4484 137.3647 0019816 313.4248 046.5188 12.42886671185034
Epoch (UTC): 20 June 2018 17:28:35
Eccentricity: 0.0019816
inclination: 82.4484°
perigee height: 1479 km
apogee height: 1510 km
right ascension of ascending node: 137.3647°
argument of perigee: 313.4248°
revolutions per day: 12.42886671
mean anomaly at epoch: 46.5188°
orbit number at epoch: 18503

The dashed part of the orbit path shows where the satellite is in the earth's shadow,  

DLR